Regional Weather Roundup
Issued by NWS Northern Indiana

Home | Current Version | Previous Version | Graphics & Text | Print | Product List | Glossary On
Versions: 1 2 3 4 5 6 7 8 9 10 11 12 13 14 15 16 17 18 19 20 21 22 23 24 25 26 27 28 29 30 31 32 33 34 35 36 37 38 39 40 41 42 43 44 45 46 47 48 49 50
000
ASUS43 KIWX 161610
RWRIWX

KIWX WEATHER ROUNDUP
NATIONAL WEATHER SERVICE NORTHERN INDIANA
1200 PM EDT TUE SEP 16 2014

NOTE: "FAIR" INDICATES FEW OR NO CLOUDS BELOW 12,000 FEET WITH NO
SIGNIFICANT WEATHER AND/OR OBSTRUCTIONS TO VISIBILITY.

* THESE STATIONS ARE NOT UNDER NWS QUALITY CONTROL. THEY ALSO MAY NOT
  REPORT WEATHER SUCH AS PRECIPITATION OR FOG.

INZ001>027-161700-
NORTHERN INDIANA

CITY           SKY/WX    TMP DP  RH WIND       PRES   REMARKS
GARY*          MOSUNNY   63  46  55 NW7       30.21F
VALPARAISO     PTSUNNY   58  48  69 CALM      30.20F
MICHIGAN CITY* PTSUNNY   59  48  67 CALM      30.20F
LAPORTE*       CLOUDY    58  48  69 W5        30.21S
KNOX*          SUNNY     59  47  63 CALM      30.19F
SOUTH BEND     NOT AVBL
GOSHEN         SUNNY     62  45  53 CALM      30.19F
MONTICELLO*    MOSUNNY   60  50  70 E5        30.19F
LOGANSPORT*    MOSUNNY   59  46  63 NE6       30.21S
ROCHESTER*     SUNNY     63  46  55 NE6       30.19F
WARSAW*        SUNNY     59  45  58 NW3       30.19F
ANGOLA*        MOSUNNY   59  48  67 E5        30.18S
FORT WAYNE     PTSUNNY   58  50  75 CALM      30.20F
HUNTINGTON*    CLOUDY    54  51  89 NE3       30.19F
PERU/GRISSOM   MOSUNNY   57  55  93 VRB6      30.20F
MARION*        CLOUDY    58  48  69 N6        30.20S

$$
INZ028>050-161700-
CENTRAL INDIANA

CITY           SKY/WX    TMP DP  RH WIND       PRES   REMARKS
LAFAYETTE      PTSUNNY   60  50  69 VRB3      30.20F
KOKOMO*        MOSUNNY   61  48  63 NE6       30.20S
MUNCIE*        CLOUDY    58  49  72 CALM      30.19S
INDIANAPOLIS   PTSUNNY   60  50  69 NE9       30.19F

$$
MIZ043>046-050>051-056>058-064>065-071>073-077>080-161700-
SOUTHWEST LOWER MICHIGAN

CITY           SKY/WX    TMP DP  RH WIND       PRES   REMARKS
BATTLE CREEK   MOSUNNY   61  47  59 N6        30.18F
BENTON HARBOR  MOSUNNY   59  49  69 W5        30.19S
COLDWATER*     SUNNY     60  46  57 CALM      30.17F
HILLSDALE*     MOSUNNY   60  46  60 N3        30.17F
HOLLAND        MOSUNNY   63  51  65 VRB7      30.18F
GRAND RAPIDS   PTSUNNY   61  51  70 NW6       30.17F
KALAMAZOO      MOSUNNY   63  45  51 VRB5      30.18F
STURGIS*       SUNNY     57  46  67 CALM      30.18F
THREE RIVERS*  FAIR      61  48  63 W3        30.18F

$$
OHZ001>008-015>018-024>025-161700-
NORTHWEST OHIO

CITY           SKY/WX    TMP DP  RH WIND       PRES   REMARKS
WAUSEON*       FAIR      59  46  63 N5        30.17F
DEFIANCE       MOSUNNY   60  48  64 N6        30.18F
FINDLAY        PTSUNNY   61  48  62 N6        30.16F
TOLEDO EXPRESS SUNNY     60  48  64 N5        30.17F
TOLEDO METCALF PTSUNNY   60  47  61 NW7       30.17F
LIMA           PTSUNNY   60  51  72 N7        30.17F

$$
&&


USA.gov is the U.S. government's official web portal to all federal, state and local government web resources and services.